Regional Weather Roundup
Issued by NWS

Home | Current Version | Previous Version | Graphics & Text | Print | Product List | Glossary On
Versions: 1 2 3 4 5 6 7 8 9 10 11 12 13 14 15 16 17 18 19 20 21 22 23 24 25 26 27 28 29 30 31 32 33 34 35 36 37 38 39 40 41 42 43 44 45 46 47 48 49 50
000
ASUS43 KFSD 301702
RWRSD

WEATHER ROUNDUP FOR SOUTH DAKOTA
NATIONAL WEATHER SERVICE SIOUX FALLS SD
1200 PM CDT MON MAR 30 2015

NOTE: "FAIR" INDICATES FEW OR NO CLOUDS BELOW 12,000 FEET WITH NO
SIGNIFICANT WEATHER AND/OR OBSTRUCTIONS TO VISIBILITY.


SDZ001>005-009-010-012>017-301800-
NORTHWEST AND NORTH CENTRAL SOUTH DAKOTA

CITY           SKY/WX    TMP DP  RH WIND       PRES   REMARKS
BUFFALO          N/A     61  30  31 W29G38    29.96R
FAITH            N/A     60  29  30 NW24G32   29.99R
MOBRIDGE       MOSUNNY   64  34  32 NW17      29.87S
$$

SDZ012>016-024>037-041>051-057-063-072>074-301800-
SOUTHWEST AND SOUTH CENTRAL SOUTH DAKOTA

CITY           SKY/WX    TMP DP  RH WIND       PRES   REMARKS
RAPID CTY ARPT PTSUNNY   62  29  28 N25G33    30.07R
PIERRE         PTSUNNY   63  31  30 NW20G29   29.94S
CUSTER         MOSUNNY   57  20  23 NW9G30    30.11R
ELLSWORTH AFB  SUNNY     62  30  29 NW22G28   30.06R
PHILIP         PTSUNNY   67  28  23 N21       30.01R
PINE RIDGE     SUNNY     63  26  24 NW10      30.08R
SPEARFISH      FAIR      55  28  35 NW20G29   30.11R
WINNER         FAIR      68  25  19 NW23G32   29.99R
$$

SDZ004>011-016>023-039-040-301800-
NORTHEAST SOUTH DAKOTA

CITY           SKY/WX    TMP DP  RH WIND       PRES   REMARKS
ABERDEEN       SUNNY     67  32  27 NW18      29.83F
WATERTOWN      MOSUNNY   63  28  26 W15       29.85F
SISSETON         N/A     64  32  30 W17       29.79F
$$

SDZ017-020-022-023-036>040-048>070-301800-
SOUTHEAST SOUTH DAKOTA

CITY           SKY/WX    TMP DP  RH WIND       PRES   REMARKS
SIOUX FALLS    PTSUNNY   61  23  23 SW10      29.90F
HURON          MOSUNNY   69  28  21 W15G22    29.88F
MITCHELL       MOSUNNY   70  28  21 W16       29.90F
YANKTON        MOSUNNY   66  28  24 SW18G25   29.93S
$$

ABBREVIATIONS USED IN REMARKS
   TC - TEMPERATURE IN CELSIUS
  WCI - WIND CHILL INDEX
   HX - HEAT INDEX
  VSB - VISIBILITY



USA.gov is the U.S. government's official web portal to all federal, state and local government web resources and services.